CAPE
377 401 417 452 574 483 586 751 878 884 844 974 806 645 506 424 421 443 464 494 1008 918 777 601 419 237 398 502 572 551 580 513 539
429 422 484 651 682 645 456 651 732 685 548 534 412 360 415 409 381 378 378 628 881 959 798 659 542 343 132 158 143 239 267 290 390
399 395 404 361 327 415 530 465 517 460 407 305 239 273 352 421 414 410 299 606 968 827 649 478 367 298 359 339 255 206 118 65 102
248 307 292 215 172 204 302 263 305 282 160 76 140 139 142 278 336 361 450 683 815 786 672 698 611 547 432 296 239 231 231 200 155
54 75 154 148 101 119 125 158 157 107 75 52 54 98 97 97 168 202 279 634 866 702 556 538 495 442 400 325 318 213 127 87 107
5 12 34 72 61 63 76 46 33 71 82 95 72 69 92 98 106 121 280 474 459 386 325 423 409 334 234 176 202 227 183 120 91
0 0 0 0 22 29 42 48 38 22 2 29 47 44 64 84 103 105 320 391 467 416 366 394 305 292 209 190 229 198 139 112 108
0 0 0 0 0 14 0 13 26 13 0 0 0 0 0 13 78 106 159 312 322 428 324 215 259 228 168 196 253 200 142 110 80
0 0 0 0 0 0 1 0 0 0 0 0 0 0 0 0 16 97 65 173 262 267 190 253 244 218 180 199 219 241 206 188 189
0 0 0 0 0 0 0 0 0 0 0 0 0 0 0 0 0 5 59 88 200 203 223 310 227 213 206 194 159 119 114 105 84
0 0 0 0 0 0 0 0 0 0 0 0 0 0 0 0 0 0 0 2 46 112 140 170 200 196 172 122 71 60 25 25 22
0 0 0 0 0 3 1 0 0 0 1 0 1 0 0 0 0 0 0 0 1 0 8 11 41 128 133 114 37 14 7 23 8
0 0 0 1 0 5 6 3 2 1 1 5 2 1 3 0 0 0 0 0 0 0 0 0 4 6 5 9 14 14 7 9 18
0 0 1 1 1 0 0 0 0 0 1 0 0 0 0 1 3 4 5 3 0 0 0 0 0 0 1 1 1 12 24 34 19
0 0 2 0 1 2 2 1 0 0 0 0 0 6 4 9 8 5 10 11 6 3 0 0 0 0 0 0 1 3 2 3 0
0 0 0 4 0 2 5 6 5 6 1 0 7 2 8 7 6 6 7 7 4 5 0 0 0 0 0 0 0 0 0 0 0
0 0 0 0 0 0 1 4 5 5 6 1 0 0 0 1 8 2 3 4 8 3 0 0 0 0 0 0 0 0 0 52 0
0 0 0 0 0 0 0 0 0 0 10 4 0 0 0 0 0 0 0 0 0 0 0 0 0 0 0 0 0 0 0 0 0
4 1 0 0 0 0 0 0 0 0 0 2 10 0 0 0 0 0 0 0 0 0 0 0 0 0 0 0 0 0 0 0 0
8 8 7 4 0 0 0 0 0 0 0 0 0 0 0 0 0 0 0 0 0 0 0 0 0 0 0 0 0 0 0 0 0
CIN
0 0 0 -21 -2 -11 -6 -8 -10 -8 -8 -4 -5 -13 -21 -19 -16 -14 -10 -9 0 0 0 0 0 -7 -1 -2 0 0 0 0 0
-1 0 0 -4 -3 -3 -10 -6 -6 -17 -34 -16 -18 -25 -12 -14 -18 -14 -19 -2 0 0 0 0 0 0 -14 -6 -2 0 0 -1 0
0 0 0 0 0 0 0 -14 -19 -32 -28 -24 -22 -17 -21 -14 -11 -14 -21 -15 0 0 0 0 0 0 -1 -1 -2 -2 -3 -8 -5
0 0 0 -3 -6 -2 -6 -28 -20 -47 -47 -95 -52 -31 -22 -24 -18 -9 -5 -6 0 0 0 -1 0 0 0 0 -3 -2 -1 -2 -5
-30 -33 -1 -9 -20 -27 -24 -17 -32 -55 -73 -61 -85 -51 -57 -51 -31 -19 -13 -6 0 0 0 0 0 0 0 -1 -1 -4 -3 -7 -4
-56 -78 -57 -60 -52 -45 -71 -50 -61 -46 -48 -42 -32 -32 -40 -40 -28 -30 -12 -8 -1 -1 -6 0 0 0 -3 -1 -1 0 0 0 -3
0 0 0 0 -45 -25 -30 -31 -34 -37 -39 -87 -45 -28 -11 -37 -20 -20 -5 -4 0 -1 -1 0 0 0 -1 -1 0 0 0 -5 -2
0 0 0 0 0 -10 0 -9 -36 -58 0 0 0 0 -9 -70 -14 -5 -1 -1 -1 0 -1 -5 -1 -2 0 0 0 0 -2 -6 -2
0 0 0 0 0 0 0 0 -7 0 0 0 0 0 0 0 -44 0 -1 0 -6 -1 0 -3 -30 0 0 0 0 0 0 0 0
0 0 0 0 0 0 0 0 0 0 0 0 0 0 0 0 -23 -78 -4 0 0 0 -18 -1 0 0 0 0 0 0 -1 -3 -7
0 0 0 0 0 0 0 0 0 0 0 0 0 0 0 0 0 0 0 -14 -2 -1 -1 0 0 0 0 -12 -22 -57 -2 -5 0
0 0 0 0 0 0 0 0 0 0 -1 0 -1 0 0 0 0 0 0 0 0 0 -3 0 -24 -16 -9 -37 -51 -65 -81 -41 -59
0 0 0 0 0 0 0 -1 0 -1 -1 0 0 -1 0 0 0 0 0 0 0 0 0 0 0 0 0 0 -71 -93 -18 -60 -31
0 0 0 0 0 -1 0 0 0 0 -1 0 0 0 0 0 0 0 0 0 0 0 0 0 0 0 0 0 0 -38 -82 -37 -37
0 0 0 0 -3 -1 -1 0 0 0 0 0 0 0 0 0 0 0 0 0 0 0 0 0 0 0 0 0 0 0 0 0 0
0 0 0 0 0 -1 0 0 0 0 -1 0 0 0 0 0 0 0 0 0 0 0 0 0 0 0 0 0 0 0 0 0 0
0 0 0 0 0 0 0 -1 0 0 -1 0 0 0 0 0 0 0 0 0 0 0 0 0 0 0 0 0 0 0 0 0 0
0 0 0 0 0 0 0 0 0 0 -1 -1 0 0 0 0 0 0 0 0 0 0 0 0 0 0 0 0 0 0 0 0 0
0 0 0 0 0 0 0 0 0 0 0 -1 0 0 0 0 0 0 0 0 0 0 0 0 0 0 0 0 0 0 0 0 0
0 0 -1 0 0 0 0 0 0 0 0 0 0 0 0 0 0 0 0 0 0 0 0 0 0 0 0 0 0 0 0 0 0
Wind_Speed
32 33 34 33 32 31 30 36 38 35 32 35 31 31 30 27 24 23 22 23 29 32 30 31 30 30 31 30 31 31 31 30 31
32 33 34 34 30 27 28 35 40 40 37 38 34 31 30 23 23 24 24 27 34 32 32 35 33 31 30 32 33 35 34 34 34
29 28 29 28 32 29 30 34 38 41 40 37 36 34 30 24 24 26 25 33 34 32 37 36 33 31 30 33 33 33 34 nan 34
33 31 27 26 31 36 33 30 33 39 40 nan 32 32 32 25 22 23 25 33 36 33 26 39 35 35 36 36 34 34 35 35 35
nan nan 32 29 32 31 34 36 37 38 nan nan nan nan nan nan 23 20 20 36 37 37 32 30 31 36 34 34 35 38 35 nan 35
nan nan nan nan nan nan nan nan nan nan nan nan nan nan nan nan 28 27 22 26 30 33 34 32 36 39 41 33 28 31 34 34 nan
nan nan nan nan nan nan nan nan nan nan nan nan nan nan nan nan 30 25 32 25 31 34 34 35 32 35 32 32 34 33 32 35 35
nan nan nan nan nan nan nan nan nan nan nan nan nan nan nan nan nan 30 37 31 27 29 28 22 29 33 27 27 29 38 40 37 nan
nan nan nan nan nan nan nan nan nan nan nan nan nan nan nan nan nan nan nan 40 32 31 30 29 30 27 24 18 18 29 34 34 35
nan nan nan nan nan nan nan nan nan nan nan nan nan nan nan nan nan nan nan nan 48 46 30 35 31 29 42 36 32 29 30 29 nan
nan nan nan nan nan nan nan nan nan nan nan nan nan nan nan nan nan nan nan nan nan 52 56 56 35 32 42 43 nan nan nan nan nan
nan nan nan nan nan nan nan nan nan nan nan nan nan nan nan nan nan nan nan nan nan nan nan nan nan 49 47 51 nan nan nan nan nan
nan nan nan nan nan nan nan nan nan nan nan nan nan nan nan nan nan nan nan nan nan nan nan nan nan nan nan nan nan nan nan nan nan
nan nan nan nan nan nan nan nan nan nan nan nan nan nan nan nan nan nan nan nan nan nan nan nan nan nan nan nan nan nan nan nan nan
nan nan nan nan nan nan nan nan nan nan nan nan nan nan nan nan nan nan nan nan nan nan nan nan nan nan nan nan nan nan nan nan nan
nan nan nan nan nan nan nan nan nan nan nan nan nan nan nan nan nan nan nan nan nan nan nan nan nan nan nan nan nan nan nan nan nan
nan nan nan nan nan nan nan nan nan nan nan nan nan nan nan nan nan nan nan nan nan nan nan nan nan nan nan nan nan nan nan nan nan
nan nan nan nan nan nan nan nan nan nan nan nan nan nan nan nan nan nan nan nan nan nan nan nan nan nan nan nan nan nan nan nan nan
nan nan nan nan nan nan nan nan nan nan nan nan nan nan nan nan nan nan nan nan nan nan nan nan nan nan nan nan nan nan nan nan nan
nan nan nan nan nan nan nan nan nan nan nan nan nan nan nan nan nan nan nan nan nan nan nan nan nan nan nan nan nan nan nan nan nan
Wind_Direction
260 257 255 257 263 270 261 258 251 245 247 251 246 249 247 247 248 247 261 259 263 267 259 262 256 255 252 253 255 257 258 258 260
262 260 253 247 250 258 263 261 252 246 243 244 244 244 241 242 248 251 254 262 265 267 263 257 259 257 261 261 261 259 258 258 257
256 254 251 243 240 249 257 260 257 251 243 237 242 238 242 242 246 247 249 268 267 268 269 264 266 265 262 259 258 260 258 nan 257
247 248 247 246 249 255 253 256 254 255 253 nan 228 233 236 241 239 245 251 263 266 271 278 268 261 264 264 262 262 263 261 257 255
nan nan 244 254 263 262 257 256 255 249 nan nan nan nan nan nan 230 231 254 261 265 266 276 275 267 268 261 264 270 266 263 nan 256
nan nan nan nan nan nan nan nan nan nan nan nan nan nan nan nan 233 233 244 263 269 271 274 272 272 271 270 266 255 261 259 257 nan
nan nan nan nan nan nan nan nan nan nan nan nan nan nan nan nan 231 231 229 255 272 274 271 273 269 273 265 266 262 255 258 258 252
nan nan nan nan nan nan nan nan nan nan nan nan nan nan nan nan nan 213 221 241 258 280 265 264 266 263 266 266 262 249 249 246 nan
nan nan nan nan nan nan nan nan nan nan nan nan nan nan nan nan nan nan nan 231 241 247 268 265 267 256 239 227 238 241 241 247 245
nan nan nan nan nan nan nan nan nan nan nan nan nan nan nan nan nan nan nan nan 235 240 228 249 254 249 235 225 224 226 231 232 nan
nan nan nan nan nan nan nan nan nan nan nan nan nan nan nan nan nan nan nan nan nan 236 236 241 230 229 234 232 nan nan nan nan nan
nan nan nan nan nan nan nan nan nan nan nan nan nan nan nan nan nan nan nan nan nan nan nan nan nan 253 262 253 nan nan nan nan nan
nan nan nan nan nan nan nan nan nan nan nan nan nan nan nan nan nan nan nan nan nan nan nan nan nan nan nan nan nan nan nan nan nan
nan nan nan nan nan nan nan nan nan nan nan nan nan nan nan nan nan nan nan nan nan nan nan nan nan nan nan nan nan nan nan nan nan
nan nan nan nan nan nan nan nan nan nan nan nan nan nan nan nan nan nan nan nan nan nan nan nan nan nan nan nan nan nan nan nan nan
nan nan nan nan nan nan nan nan nan nan nan nan nan nan nan nan nan nan nan nan nan nan nan nan nan nan nan nan nan nan nan nan nan
nan nan nan nan nan nan nan nan nan nan nan nan nan nan nan nan nan nan nan nan nan nan nan nan nan nan nan nan nan nan nan nan nan
nan nan nan nan nan nan nan nan nan nan nan nan nan nan nan nan nan nan nan nan nan nan nan nan nan nan nan nan nan nan nan nan nan
nan nan nan nan nan nan nan nan nan nan nan nan nan nan nan nan nan nan nan nan nan nan nan nan nan nan nan nan nan nan nan nan nan
nan nan nan nan nan nan nan nan nan nan nan nan nan nan nan nan nan nan nan nan nan nan nan nan nan nan nan nan nan nan nan nan nan